This is the latest recevied weather packets stored in our database for station/object K8JCL-13. If no packets are shown the sender has not sent any weather packets the latest 10 day(s).
| Time | Temp. | Humidity | Pressure | Rain* | Wind** | Luminosity | Snow |
|---|---|---|---|---|---|---|---|
| 1777919162 | 21.11° C | 62% | 1007.9 hPa | 0 mm | - | 80 W/m² | - |
| 1777918860 | 21.67° C | 60% | 1008.2 hPa | 0 mm | - | 195 W/m² | - |
| 1777918556 | 22.22° C | 63% | 1008.3 hPa | 0 mm | - | 297 W/m² | - |
| 1777918254 | 22.22° C | 59% | 1007.9 hPa | 0 mm | - | 256 W/m² | - |
| 1777917953 | 22.78° C | 61% | 1008 hPa | 0 mm | - | 305 W/m² | - |
| 1777917652 | 21.67° C | 63% | 1007.9 hPa | 0 mm | - | 596 W/m² | - |
| 1777917349 | 22.22° C | 60% | 1007.6 hPa | 0 mm | - | 351 W/m² | - |
| 1777917045 | 22.78° C | 58% | 1007.9 hPa | 0 mm | - | 491 W/m² | - |
| 1777916744 | 21.67° C | 66% | 1007.9 hPa | 0 mm | - | 513 W/m² | - |
| 1777916440 | 21.67° C | 62% | 1007.8 hPa | 0 mm | - | 298 W/m² | - |
| 1777916137 | 22.22° C | 62% | 1007.7 hPa | 0 mm | - | 254 W/m² | - |
| 1777915834 | 22.22° C | 61% | 1008 hPa | 0 mm | - | 633 W/m² | - |
| 1777915530 | 22.22° C | 61% | 1007.9 hPa | 0 mm | - | 610 W/m² | - |
| 1777915227 | 21.67° C | 62% | 1007.9 hPa | 0 mm | - | 664 W/m² | - |
| 1777914924 | 21.67° C | 65% | 1008.3 hPa | 0 mm | - | 420 W/m² | - |
| 1777914621 | 21.67° C | 58% | 1008.1 hPa | 0 mm | - | 710 W/m² | - |
| 1777914317 | 20.56° C | 61% | 1007.9 hPa | 0 mm | - | 755 W/m² | - |
| 1777914015 | 21.11° C | 61% | 1008.2 hPa | 0 mm | - | 348 W/m² | - |
| 1777913710 | 21.67° C | 60% | 1008.2 hPa | 0 mm | - | 389 W/m² | - |
| 1777913407 | 21.67° C | 57% | 1008 hPa | 0 mm | - | 688 W/m² | - |
| 1777913104 | 21.11° C | 62% | 1008.2 hPa | 0 mm | - | 683 W/m² | - |
| 1777912800 | 21.67° C | 59% | 1008.3 hPa | 0 mm | - | 683 W/m² | - |
| 1777912495 | 22.22° C | 57% | 1008.4 hPa | 0 mm | - | 692 W/m² | - |
| 1777912193 | 22.78° C | 60% | 1008.5 hPa | 0 mm | - | 676 W/m² | - |
| 1777911889 | 22.22° C | 61% | 1008.5 hPa | 0 mm | - | 681 W/m² | - |
* Rain latest hour (hover to see other rain measurements)
** Current wind speed in m/s (hover to see current wind gust speed)